APSTAR-6D

Last updated on Sat Sep 13 2025 00:02:50 GMT+0000 (Coordinated Universal Time)

1 45863U 20045A 25255.35322426 -.00000323 00000+0 00000+0 0 9990 2 45863 0.0399 100.7240 0002517 348.8392 163.2178 1.00271918 19079
UTC large
Height (km)
Speed (km/s)
/
Latitude / Longitude
Inclination (degrees)
Orbital Period (minutes)
Azimuth
Elevation
Range (km)
Doppler Factor

Next 0 passes for location: London (51.5072 / 0.1276)

Sorry there are no passes over London.